TimeCDT,TemperatureF,Dew PointF,Humidity,Sea Level PressureIn,VisibilityMPH,Wind Direction,Wind SpeedMPH,Gust SpeedMPH,PrecipitationIn,Events,Conditions,WindDirDegrees,DateUTC
12:54 AM,59.0,35.1,41,30.01,10.0,South,12.7,19.6,N/A,,Clear,180,2011-11-02 05:54:00
1:54 AM,59.0,35.1,41,30.02,10.0,South,13.8,-,N/A,,Scattered Clouds,190,2011-11-02 06:54:00
2:54 AM,59.0,36.0,42,30.02,10.0,South,13.8,-,N/A,,Overcast,190,2011-11-02 07:54:00
3:54 AM,57.9,36.0,44,30.02,10.0,South,13.8,-,N/A,,Mostly Cloudy,190,2011-11-02 08:54:00
4:54 AM,57.9,37.0,46,30.02,10.0,South,13.8,-,N/A,,Clear,190,2011-11-02 09:54:00
5:54 AM,57.0,37.0,47,30.03,10.0,South,13.8,-,N/A,,Mostly Cloudy,190,2011-11-02 10:54:00
6:54 AM,57.0,37.0,47,30.03,10.0,South,10.4,-,N/A,,Mostly Cloudy,190,2011-11-02 11:54:00
7:54 AM,55.9,37.0,49,30.03,10.0,South,10.4,-,N/A,,Scattered Clouds,180,2011-11-02 12:54:00
8:54 AM,57.9,37.9,47,30.05,10.0,South,10.4,-,N/A,,Overcast,190,2011-11-02 13:54:00
9:54 AM,59.0,37.9,46,30.05,10.0,South,15.0,-,N/A,,Overcast,190,2011-11-02 14:54:00
10:54 AM,64.0,39.0,40,30.02,10.0,South,13.8,-,N/A,,Partly Cloudy,190,2011-11-02 15:54:00
11:54 AM,66.9,41.0,39,29.98,10.0,South,11.5,-,N/A,,Scattered Clouds,190,2011-11-02 16:54:00
12:54 PM,68.0,43.0,40,29.94,10.0,SSW,18.4,21.9,N/A,,Overcast,210,2011-11-02 17:54:00
1:54 PM,69.1,44.1,40,29.93,10.0,WSW,6.9,-,N/A,,Overcast,240,2011-11-02 18:54:00
2:54 PM,68.0,44.1,42,29.92,10.0,WNW,5.8,-,N/A,,Scattered Clouds,300,2011-11-02 19:54:00
3:54 PM,69.1,45.0,42,29.91,10.0,WNW,6.9,-,N/A,,Clear,300,2011-11-02 20:54:00
4:54 PM,64.9,44.1,47,29.92,10.0,NNW,13.8,-,N/A,,Mostly Cloudy,340,2011-11-02 21:54:00
5:54 PM,57.0,44.1,62,29.93,10.0,NNW,17.3,-,N/A,,Overcast,340,2011-11-02 22:54:00
6:54 PM,53.6,44.6,72,29.94,10.0,NNE,18.4,-,N/A,,Overcast,20,2011-11-02 23:54:00
7:54 PM,52.0,45.0,77,29.94,10.0,North,10.4,-,N/A,,Overcast,10,2011-11-03 00:54:00
8:54 PM,51.1,45.0,80,29.92,10.0,NNE,9.2,-,N/A,,Overcast,20,2011-11-03 01:54:00
9:37 PM,51.8,44.6,76,29.93,9.0,North,11.5,-,N/A,,Overcast,360,2011-11-03 02:37:00
9:54 PM,51.1,45.0,80,29.92,9.0,North,15.0,-,N/A,,Overcast,10,2011-11-03 02:54:00
10:26 PM,51.8,46.4,82,29.96,8.0,NNW,17.3,-,N/A,,Overcast,330,2011-11-03 03:26:00
10:44 PM,48.2,44.6,87,29.96,4.0,NNW,23.0,28.8,0.00,Rain,Light Rain,340,2011-11-03 03:44:00
10:54 PM,46.9,44.1,90,29.99,4.0,NNW,21.9,-,0.01,Rain,Light Rain,330,2011-11-03 03:54:00
11:32 PM,42.8,41.0,93,29.95,7.0,North,26.5,33.4,0.06,Rain,Rain,10,2011-11-03 04:32:00
11:54 PM,43.0,39.9,89,29.95,4.0,NNE,24.2,29.9,0.12,Rain,Rain,20,2011-11-03 04:54:00